sat.trackr.live / text

‹ back to catalog

STARLINK-5789

NORAD 56003 · 2023-042T

PAYLOAD ACTIVE UNKNOWN

§ Identity

Operator
Country
US
Launch date
2023-03-24
Launch site
AFETR
Launch vehicle
Mass (kg)
RCS (m²)

Purposes: comms

External: N2YO · Heavens-Above · Gunter

§ Orbital elements

Epoch: 2026-09-18T16:36:43.357536Z

Period
94.27 min
Inclination
43.0022°
Eccentricity
0.0002279
Mean motion
15.27581038 rev/d
Perigee alt
481.5 km
Apogee alt
484.6 km
Semi-major
6,861.2 km
B*
8.0687e-5
RAAN
49.8840°
Arg perigee
259.9246°
Mean anomaly
100.1349°
Rev number
19,238

§ Raw data

STARLINK-57891 56003U 23042T   26261.69216849  .00001959  00000+0  80687-4 0  99932 56003  43.0022  49.8840 0002279 259.9246 100.1349 15.27581038192388

JSON: /api/v1/satellites/56003 · /tle

For live sub-satellite position, see the globe view (requires WebGL).

§ Visibility from observer

Set your observer location to see the next 7 days of passes ≥ 10°. The values pass through the URL so the page stays shareable.

No JS? Fill the form by hand. The geolocation button needs JavaScript.